When you browse on this site, cookies collect data to enhance your experience and personalize the content and advertising you see.
Visit our Privacy Policy to learn more. By continuing to use the site, you agree to this use of cookies and data.
  • In Latvia
  • List of Countries
  • For 7 days
  • Water Temperature
  • Satellite Maps
  • Weather Map
  • Weather Widgets
  • user-avatar
    Login

    Hourly Weather Kamenka

    Today, 22 February, Friday

    Time Temperature Precipitation Wind Pressure Humidity
    00:00 -14°C° 0.1 mm 6 mps 746 mmHg 80%
    01:00 -14°C° 0.1 mm 6 mps 746 mmHg 80%
    02:00 -14°C° 0 mm 6 mps 747 mmHg 80%
    03:00 -14°C° 0.2 mm 6 mps 747 mmHg 79%
    04:00 -15°C° 0.2 mm 7 mps 748 mmHg 79%
    05:00 -15°C° 0.2 mm 7 mps 749 mmHg 78%
    06:00 -15°C° 0 mm 7 mps 749 mmHg 76%
    07:00 -15°C° 0 mm 7 mps 750 mmHg 74%
    08:00 -15°C° 0 mm 7 mps 751 mmHg 72%
    09:00 -14°C° 0 mm 7 mps 752 mmHg 70%
    10:00 -13°C° 0 mm 7 mps 753 mmHg 69%
    11:00 -12°C° 0 mm 7 mps 754 mmHg 67%
    12:00 -12°C° 0 mm 7 mps 754 mmHg 68%
    13:00 -11°C° 0 mm 7 mps 755 mmHg 68%
    14:00 -11°C° 0 mm 7 mps 756 mmHg 69%
    15:00 -10°C° 0 mm 6 mps 756 mmHg 72%
    16:00 -11°C° 0 mm 5 mps 757 mmHg 75%
    17:00 -11°C° 0 mm 5 mps 758 mmHg 77%
    18:00 -11°C° 0 mm 4 mps 759 mmHg 81%
    19:00 -11°C° 0 mm 4 mps 759 mmHg 84%
    20:00 -12°C° 0 mm 4 mps 760 mmHg 87%
    21:00 -12°C° 0 mm 3 mps 760 mmHg 88%
    22:00 -13°C° 0 mm 3 mps 761 mmHg 88%
    23:00 -14°C° 0 mm 3 mps 761 mmHg 89%

    Tomorrow, 23 February, Saturday

    Time Temperature Precipitation Wind Pressure Humidity
    00:00 -14°C° 0 mm 3 mps 761 mmHg 90%
    01:00 -14°C° 0 mm 2 mps 762 mmHg 91%
    02:00 -15°C° 0 mm 2 mps 762 mmHg 92%
    03:00 -15°C° 0 mm 2 mps 762 mmHg 91%
    04:00 -15°C° 0 mm 2 mps 762 mmHg 89%
    05:00 -15°C° 0 mm 2 mps 762 mmHg 88%
    06:00 -14°C° 0 mm 2 mps 761 mmHg 86%
    07:00 -14°C° 0 mm 2 mps 761 mmHg 84%
    08:00 -14°C° 0 mm 3 mps 761 mmHg 82%
    09:00 -12°C° 0 mm 3 mps 760 mmHg 77%
    10:00 -11°C° 0 mm 4 mps 759 mmHg 72%
    11:00 -9°C° 0 mm 4 mps 759 mmHg 67%
    12:00 -9°C° 0.5 mm 4 mps 758 mmHg 75%
    13:00 -10°C° 0.5 mm 5 mps 757 mmHg 83%
    14:00 -10°C° 0.5 mm 5 mps 756 mmHg 91%
    15:00 -10°C° 1.2 mm 5 mps 755 mmHg 91%
    16:00 -8°C° 1.2 mm 5 mps 754 mmHg 91%
    17:00 -8°C° 1.2 mm 5 mps 753 mmHg 91%
    18:00 -6°C° 0.2 mm 5 mps 753 mmHg 91%
    19:00 -5°C° 0.2 mm 5 mps 752 mmHg 90%
    20:00 -4°C° 0.2 mm 5 mps 751 mmHg 90%
    21:00 -2°C° 0.1 mm 5 mps 751 mmHg 90%
    22:00 -1°C° 0.1 mm 5 mps 751 mmHg 91%
    23:00 0°C° 0.1 mm 5 mps 751 mmHg 92%

    Day after tomorrow, 24 February, Sunday

    Time Temperature Precipitation Wind Pressure Humidity
    00:00 -1°C° 0.2 mm 4 mps 751 mmHg 92%
    01:00 -1°C° 0.2 mm 4 mps 751 mmHg 92%
    02:00 -1°C° 0.2 mm 4 mps 751 mmHg 93%
    03:00 -1°C° 0 mm 4 mps 751 mmHg 93%
    04:00 -1°C° 0 mm 4 mps 751 mmHg 94%
    05:00 0°C° 0 mm 3 mps 751 mmHg 95%
    06:00 -1°C° 0 mm 4 mps 752 mmHg 94%
    07:00 -1°C° 0 mm 4 mps 752 mmHg 94%
    08:00 -1°C° 0 mm 4 mps 752 mmHg 94%
    09:00 -1°C° 0 mm 4 mps 753 mmHg 95%
    10:00 0°C° 0 mm 4 mps 753 mmHg 96%
    11:00 0°C° 0 mm 4 mps 753 mmHg 97%
    12:00 +1°C° 0 mm 3 mps 753 mmHg 97%
    13:00 +1°C° 0 mm 3 mps 753 mmHg 97%
    14:00 +1°C° 0 mm 3 mps 754 mmHg 97%
    15:00 0°C° 0 mm 3 mps 754 mmHg 96%
    16:00 0°C° 0 mm 3 mps 754 mmHg 96%
    17:00 0°C° 0 mm 3 mps 754 mmHg 96%
    18:00 0°C° 0 mm 3 mps 753 mmHg 96%
    19:00 0°C° 0 mm 3 mps 753 mmHg 96%
    20:00 0°C° 0 mm 3 mps 753 mmHg 96%
    21:00 0°C° 0.1 mm 3 mps 753 mmHg 95%
    22:00 0°C° 0.1 mm 3 mps 752 mmHg 95%
    23:00 0°C° 0.1 mm 3 mps 752 mmHg 95%

    25 February, Monday

    Time Temperature Precipitation Wind Pressure Humidity
    00:00 -1°C° 0 mm 4 mps 751 mmHg 94%
    01:00 -1°C° 0 mm 4 mps 751 mmHg 94%
    02:00 -1°C° 0 mm 5 mps 751 mmHg 94%
    03:00 0°C° 0.1 mm 5 mps 750 mmHg 93%
    04:00 0°C° 0.1 mm 5 mps 750 mmHg 92%
    05:00 0°C° 0.1 mm 5 mps 750 mmHg 91%
    06:00 0°C° 0 mm 5 mps 750 mmHg 91%
    07:00 0°C° 0 mm 5 mps 750 mmHg 90%
    08:00 0°C° 0 mm 5 mps 750 mmHg 90%
    09:00 0°C° 0 mm 5 mps 750 mmHg 88%
    10:00 0°C° 0 mm 5 mps 750 mmHg 86%
    11:00 0°C° 0 mm 5 mps 750 mmHg 84%
    12:00 0°C° 0 mm 5 mps 750 mmHg 83%
    13:00 0°C° 0 mm 5 mps 750 mmHg 82%
    14:00 0°C° 0 mm 5 mps 750 mmHg 81%
    15:00 -1°C° 0 mm 5 mps 749 mmHg 83%
    16:00 -1°C° 0 mm 5 mps 749 mmHg 84%
    17:00 -2°C° 0 mm 4 mps 749 mmHg 86%
    18:00 -2°C° 0 mm 4 mps 749 mmHg 86%
    19:00 -2°C° 0 mm 4 mps 748 mmHg 85%
    20:00 -2°C° 0 mm 4 mps 748 mmHg 85%
    21:00 -2°C° 0 mm 4 mps 747 mmHg 86%
    22:00 -2°C° 0 mm 4 mps 747 mmHg 88%
    23:00 -1°C° 0 mm 3 mps 746 mmHg 89%

    26 February, Tuesday

    Time Temperature Precipitation Wind Pressure Humidity
    00:00 -1°C° 0.1 mm 3 mps 745 mmHg 90%
    01:00 -1°C° 0.1 mm 3 mps 744 mmHg 91%
    02:00 -1°C° 0.1 mm 3 mps 743 mmHg 92%
    03:00 -1°C° 0.4 mm 3 mps 742 mmHg 93%
    04:00 -1°C° 0.4 mm 2 mps 740 mmHg 95%
    05:00 -1°C° 0.4 mm 2 mps 739 mmHg 96%
    06:00 -1°C° 0.8 mm 2 mps 738 mmHg 96%
    07:00 +1°C° 0.8 mm 1 mps 737 mmHg 97%
    08:00 +1°C° 0.8 mm 1 mps 736 mmHg 98%
    09:00 +1°C° 0.1 mm 1 mps 736 mmHg 96%
    10:00 +1°C° 0.1 mm 2 mps 737 mmHg 95%
    11:00 0°C° 0.1 mm 3 mps 737 mmHg 94%
    12:00 0°C° 0.1 mm 3 mps 737 mmHg 92%
    13:00 0°C° 0.1 mm 3 mps 738 mmHg 90%
    14:00 -1°C° 0.1 mm 4 mps 739 mmHg 88%
    15:00 -2°C° 0.1 mm 4 mps 740 mmHg 86%
    16:00 -2°C° 0.1 mm 4 mps 741 mmHg 85%
    17:00 -3°C° 0.1 mm 4 mps 742 mmHg 84%
    18:00 -3°C° 0.1 mm 4 mps 742 mmHg 82%
    19:00 -4°C° 0.1 mm 5 mps 743 mmHg 81%
    20:00 -5°C° 0.1 mm 5 mps 744 mmHg 80%
    21:00 -6°C° 0 mm 5 mps 744 mmHg 81%
    22:00 -7°C° 0 mm 4 mps 745 mmHg 83%
    23:00 -7°C° 0 mm 4 mps 745 mmHg 85%

    27 February, Wednesday

    Time Temperature Precipitation Wind Pressure Humidity
    00:00 -8°C° 0 mm 4 mps 746 mmHg 84%
    01:00 -9°C° 0 mm 4 mps 746 mmHg 83%
    02:00 -9°C° 0 mm 4 mps 747 mmHg 83%
    03:00 -10°C° 0 mm 4 mps 747 mmHg 82%
    04:00 -9°C° 0 mm 3 mps 747 mmHg 80%
    05:00 -10°C° 0 mm 3 mps 748 mmHg 79%
    06:00 -10°C° 0 mm 3 mps 748 mmHg 80%
    07:00 -9°C° 0 mm 3 mps 748 mmHg 82%
    08:00 -8°C° 0 mm 2 mps 748 mmHg 83%
    09:00 -7°C° 0 mm 2 mps 748 mmHg 83%
    10:00 -6°C° 0 mm 2 mps 747 mmHg 83%
    11:00 -4°C° 0 mm 2 mps 747 mmHg 83%
    12:00 -3°C° 0 mm 2 mps 746 mmHg 83%
    13:00 -4°C° 0 mm 3 mps 745 mmHg 83%
    14:00 -2°C° 0 mm 3 mps 744 mmHg 83%
    15:00 -3°C° 0 mm 4 mps 742 mmHg 83%
    16:00 -3°C° 0 mm 4 mps 741 mmHg 84%
    17:00 -2°C° 0 mm 4 mps 740 mmHg 84%
    18:00 -2°C° 0.1 mm 4 mps 739 mmHg 85%
    19:00 -2°C° 0.1 mm 4 mps 738 mmHg 86%
    20:00 -1°C° 0.1 mm 4 mps 737 mmHg 88%
    21:00 -1°C° 0.1 mm 4 mps 736 mmHg 89%
    22:00 -1°C° 0.1 mm 4 mps 734 mmHg 90%
    23:00 -1°C° 0.1 mm 4 mps 733 mmHg 91%
    Show more